Year,Month,Day,Hour,Minute,Value (Times are PST for insolation in W/m^2)
2010,08,10,00,00,0.00
2010,08,10,00,01,0.00
2010,08,10,00,02,0.00
2010,08,10,00,03,0.00
2010,08,10,00,04,0.00
2010,08,10,00,05,0.00
2010,08,10,00,06,0.00
2010,08,10,00,07,0.00
2010,08,10,00,08,0.00
2010,08,10,00,09,0.00
2010,08,10,00,10,0.00
2010,08,10,00,11,0.00
2010,08,10,00,12,0.00
2010,08,10,00,13,0.00
2010,08,10,00,14,0.00
2010,08,10,00,15,0.00
2010,08,10,00,16,0.00
2010,08,10,00,17,0.00
2010,08,10,00,18,0.00
2010,08,10,00,19,0.00
2010,08,10,00,20,0.00
2010,08,10,00,21,0.00
2010,08,10,00,22,0.00
2010,08,10,00,23,0.00
2010,08,10,00,24,0.00
2010,08,10,00,25,0.00
2010,08,10,00,26,0.00
2010,08,10,00,27,0.00
2010,08,10,00,28,0.00
2010,08,10,00,29,0.00
2010,08,10,00,30,0.00
2010,08,10,00,31,0.00
2010,08,10,00,32,0.00
2010,08,10,00,33,0.00
2010,08,10,00,34,0.00
2010,08,10,00,35,0.00
2010,08,10,00,36,0.00
2010,08,10,00,37,0.00
2010,08,10,00,38,0.00
2010,08,10,00,39,0.00
2010,08,10,00,40,0.00
2010,08,10,00,41,0.00
2010,08,10,00,42,0.00
2010,08,10,00,43,0.00
2010,08,10,00,44,0.00
2010,08,10,00,45,0.00
2010,08,10,00,46,0.00
2010,08,10,00,47,0.00
2010,08,10,00,48,0.00
2010,08,10,00,49,0.00
2010,08,10,00,50,0.00
2010,08,10,00,51,0.00
2010,08,10,00,52,0.00
2010,08,10,00,53,0.00
2010,08,10,00,54,0.00
2010,08,10,00,55,0.00
2010,08,10,00,56,0.00
2010,08,10,00,57,0.00
2010,08,10,00,58,0.00
2010,08,10,00,59,0.00
2010,08,10,01,00,0.00
2010,08,10,01,01,0.00
2010,08,10,01,02,0.00
2010,08,10,01,03,0.00
2010,08,10,01,04,0.00
2010,08,10,01,05,0.00
2010,08,10,01,06,0.00
2010,08,10,01,07,0.00
2010,08,10,01,08,0.00
2010,08,10,01,09,0.00
2010,08,10,01,10,0.00
2010,08,10,01,11,0.00
2010,08,10,01,12,0.00
2010,08,10,01,13,0.00
2010,08,10,01,14,0.00
2010,08,10,01,15,0.00
2010,08,10,01,16,0.00
2010,08,10,01,17,0.00
2010,08,10,01,18,0.00
2010,08,10,01,19,0.00
2010,08,10,01,20,0.00
2010,08,10,01,21,0.00
2010,08,10,01,22,0.00
2010,08,10,01,23,0.00
2010,08,10,01,24,0.00
2010,08,10,01,25,0.00
2010,08,10,01,26,0.00
2010,08,10,01,27,0.00
2010,08,10,01,28,0.00
2010,08,10,01,29,0.00
2010,08,10,01,30,0.00
2010,08,10,01,31,0.00
2010,08,10,01,32,0.00
2010,08,10,01,33,0.00
2010,08,10,01,34,0.00
2010,08,10,01,35,0.00
2010,08,10,01,36,0.00
2010,08,10,01,37,0.00
2010,08,10,01,38,0.00
2010,08,10,01,39,0.00
2010,08,10,01,40,0.00
2010,08,10,01,41,0.00
2010,08,10,01,42,0.00
2010,08,10,01,43,0.00
2010,08,10,01,44,0.00
2010,08,10,01,45,0.00
2010,08,10,01,46,0.00
2010,08,10,01,47,0.00
2010,08,10,01,48,0.00
2010,08,10,01,49,0.00
2010,08,10,01,50,0.00
2010,08,10,01,51,0.00
2010,08,10,01,52,0.00
2010,08,10,01,53,0.00
2010,08,10,01,54,0.00
2010,08,10,01,55,0.00
2010,08,10,01,56,0.00
2010,08,10,01,57,0.00
2010,08,10,01,58,0.00
2010,08,10,01,59,0.00
2010,08,10,02,00,0.00
2010,08,10,02,01,0.00
2010,08,10,02,02,0.00
2010,08,10,02,03,0.00
2010,08,10,02,04,0.00
2010,08,10,02,05,0.00
2010,08,10,02,06,0.00
2010,08,10,02,07,0.00
2010,08,10,02,08,0.00
2010,08,10,02,09,0.00
2010,08,10,02,10,0.00
2010,08,10,02,11,0.00
2010,08,10,02,12,0.00
2010,08,10,02,13,0.00
2010,08,10,02,14,0.00
2010,08,10,02,15,0.00
2010,08,10,02,16,0.00
2010,08,10,02,17,0.00
2010,08,10,02,18,0.00
2010,08,10,02,19,0.00
2010,08,10,02,20,0.00
2010,08,10,02,21,0.00
2010,08,10,02,22,0.00
2010,08,10,02,23,0.00
2010,08,10,02,24,0.00
2010,08,10,02,25,0.00
2010,08,10,02,26,0.00
2010,08,10,02,27,0.00
2010,08,10,02,28,0.00
2010,08,10,02,29,0.00
2010,08,10,02,30,0.00
2010,08,10,02,31,0.00
2010,08,10,02,32,0.00
2010,08,10,02,33,0.00
2010,08,10,02,34,0.00
2010,08,10,02,35,0.00
2010,08,10,02,36,0.00
2010,08,10,02,37,0.00
2010,08,10,02,38,0.00
2010,08,10,02,39,0.00
2010,08,10,02,40,0.00
2010,08,10,02,41,0.00
2010,08,10,02,42,0.00
2010,08,10,02,43,0.00
2010,08,10,02,44,0.00
2010,08,10,02,45,0.00
2010,08,10,02,46,0.00
2010,08,10,02,47,0.00
2010,08,10,02,48,0.00
2010,08,10,02,49,0.00
2010,08,10,02,50,0.00
2010,08,10,02,51,0.00
2010,08,10,02,52,0.00
2010,08,10,02,53,0.00
2010,08,10,02,54,0.00
2010,08,10,02,55,0.00
2010,08,10,02,56,0.00
2010,08,10,02,57,0.00
2010,08,10,02,58,0.00
2010,08,10,02,59,0.00
2010,08,10,03,00,0.00
2010,08,10,03,01,0.00
2010,08,10,03,02,0.00
2010,08,10,03,03,0.00
2010,08,10,03,04,0.00
2010,08,10,03,05,0.00
2010,08,10,03,06,0.00
2010,08,10,03,07,0.00
2010,08,10,03,08,0.00
2010,08,10,03,09,0.00
2010,08,10,03,10,0.00
2010,08,10,03,11,0.00
2010,08,10,03,12,0.00
2010,08,10,03,13,0.00
2010,08,10,03,14,0.00
2010,08,10,03,15,0.00
2010,08,10,03,16,0.00
2010,08,10,03,17,0.00
2010,08,10,03,18,0.00
2010,08,10,03,19,0.00
2010,08,10,03,20,0.00
2010,08,10,03,21,0.00
2010,08,10,03,22,0.00
2010,08,10,03,23,0.00
2010,08,10,03,24,0.00
2010,08,10,03,25,0.00
2010,08,10,03,26,0.00
2010,08,10,03,27,0.00
2010,08,10,03,28,0.00
2010,08,10,03,29,0.00
2010,08,10,03,30,0.00
2010,08,10,03,31,0.00
2010,08,10,03,32,0.00
2010,08,10,03,33,0.00
2010,08,10,03,34,0.00
2010,08,10,03,35,0.00
2010,08,10,03,36,0.00
2010,08,10,03,37,0.00
2010,08,10,03,38,0.00
2010,08,10,03,39,0.00
2010,08,10,03,40,0.00
2010,08,10,03,41,0.00
2010,08,10,03,42,0.00
2010,08,10,03,43,0.00
2010,08,10,03,44,0.00
2010,08,10,03,45,0.00
2010,08,10,03,46,0.00
2010,08,10,03,47,0.00
2010,08,10,03,48,0.00
2010,08,10,03,49,0.00
2010,08,10,03,50,0.00
2010,08,10,03,51,0.00
2010,08,10,03,52,0.00
2010,08,10,03,53,0.00
2010,08,10,03,54,0.00
2010,08,10,03,55,0.00
2010,08,10,03,56,0.00
2010,08,10,03,57,0.00
2010,08,10,03,58,0.00
2010,08,10,03,59,0.00
2010,08,10,04,00,0.00
2010,08,10,04,01,0.00
2010,08,10,04,02,0.00
2010,08,10,04,03,0.00
2010,08,10,04,04,0.00
2010,08,10,04,05,0.00
2010,08,10,04,06,0.00
2010,08,10,04,07,0.00
2010,08,10,04,08,0.00
2010,08,10,04,09,0.00
2010,08,10,04,10,0.00
2010,08,10,04,11,0.00
2010,08,10,04,12,0.00
2010,08,10,04,13,0.00
2010,08,10,04,14,0.00
2010,08,10,04,15,0.00
2010,08,10,04,16,0.00
2010,08,10,04,17,0.00
2010,08,10,04,18,0.00
2010,08,10,04,19,0.00
2010,08,10,04,20,0.00
2010,08,10,04,21,0.00
2010,08,10,04,22,0.00
2010,08,10,04,23,0.00
2010,08,10,04,24,0.00
2010,08,10,04,25,0.00
2010,08,10,04,26,0.00
2010,08,10,04,27,0.00
2010,08,10,04,28,0.00
2010,08,10,04,29,0.00
2010,08,10,04,30,0.00
2010,08,10,04,31,0.00
2010,08,10,04,32,0.00
2010,08,10,04,33,0.00
2010,08,10,04,34,0.00
2010,08,10,04,35,0.00
2010,08,10,04,36,0.00
2010,08,10,04,37,0.00
2010,08,10,04,38,0.00
2010,08,10,04,39,0.00
2010,08,10,04,40,0.00
2010,08,10,04,41,0.00
2010,08,10,04,42,0.00
2010,08,10,04,43,0.00
2010,08,10,04,44,0.00
2010,08,10,04,45,0.00
2010,08,10,04,46,0.00
2010,08,10,04,47,0.00
2010,08,10,04,48,0.00
2010,08,10,04,49,0.00
2010,08,10,04,50,0.00
2010,08,10,04,51,0.00
2010,08,10,04,52,0.00
2010,08,10,04,53,0.00
2010,08,10,04,54,0.00
2010,08,10,04,55,0.00
2010,08,10,04,56,0.00
2010,08,10,04,57,0.00
2010,08,10,04,58,0.00
2010,08,10,04,59,0.00
2010,08,10,05,00,0.00
2010,08,10,05,01,0.00
2010,08,10,05,02,0.00
2010,08,10,05,03,0.00
2010,08,10,05,04,0.00
2010,08,10,05,05,0.00
2010,08,10,05,06,0.00
2010,08,10,05,07,0.00
2010,08,10,05,08,0.00
2010,08,10,05,09,0.00
2010,08,10,05,10,0.00
2010,08,10,05,11,0.00
2010,08,10,05,12,0.00
2010,08,10,05,13,0.00
2010,08,10,05,14,0.00
2010,08,10,05,15,0.00
2010,08,10,05,16,0.00
2010,08,10,05,17,0.00
2010,08,10,05,18,0.00
2010,08,10,05,19,0.00
2010,08,10,05,20,0.00
2010,08,10,05,21,0.00
2010,08,10,05,22,0.00
2010,08,10,05,23,0.00
2010,08,10,05,24,0.00
2010,08,10,05,25,0.00
2010,08,10,05,26,0.00
2010,08,10,05,27,0.00
2010,08,10,05,28,0.00
2010,08,10,05,29,0.00
2010,08,10,05,30,0.00
2010,08,10,05,31,0.00
2010,08,10,05,32,0.00
2010,08,10,05,33,0.00
2010,08,10,05,34,0.00
2010,08,10,05,35,0.00
2010,08,10,05,36,0.00
2010,08,10,05,37,0.00
2010,08,10,05,38,0.00
2010,08,10,05,39,0.00
2010,08,10,05,40,0.00
2010,08,10,05,41,0.00
2010,08,10,05,42,0.00
2010,08,10,05,43,0.00
2010,08,10,05,44,0.00
2010,08,10,05,45,0.00
2010,08,10,05,46,0.00
2010,08,10,05,47,0.00
2010,08,10,05,48,0.00
2010,08,10,05,49,0.00
2010,08,10,05,50,0.00
2010,08,10,05,51,0.00
2010,08,10,05,52,0.00
2010,08,10,05,53,0.00
2010,08,10,05,54,0.00
2010,08,10,05,55,0.00
2010,08,10,05,56,0.00
2010,08,10,05,57,0.00
2010,08,10,05,58,0.00
2010,08,10,05,59,0.00
2010,08,10,06,00,0.00
2010,08,10,06,01,0.00
2010,08,10,06,02,0.00
2010,08,10,06,03,0.00
2010,08,10,06,04,0.00
2010,08,10,06,05,0.00
2010,08,10,06,06,0.00
2010,08,10,06,07,0.00
2010,08,10,06,08,0.00
2010,08,10,06,09,0.00
2010,08,10,06,10,0.00
2010,08,10,06,11,0.00
2010,08,10,06,12,0.00
2010,08,10,06,13,0.00
2010,08,10,06,14,0.50
2010,08,10,06,15,5.00
2010,08,10,06,16,5.00
2010,08,10,06,17,5.00
2010,08,10,06,18,5.00
2010,08,10,06,19,5.00
2010,08,10,06,20,5.00
2010,08,10,06,21,5.00
2010,08,10,06,22,5.70
2010,08,10,06,23,7.00
2010,08,10,06,24,7.00
2010,08,10,06,25,7.00
2010,08,10,06,26,7.00
2010,08,10,06,27,7.00
2010,08,10,06,28,7.00
2010,08,10,06,29,8.20
2010,08,10,06,30,9.00
2010,08,10,06,31,10.70
2010,08,10,06,32,11.10
2010,08,10,06,33,12.00
2010,08,10,06,34,12.80
2010,08,10,06,35,15.20
2010,08,10,06,36,17.50
2010,08,10,06,37,18.00
2010,08,10,06,38,19.00
2010,08,10,06,39,19.00
2010,08,10,06,40,19.00
2010,08,10,06,41,19.00
2010,08,10,06,42,19.00
2010,08,10,06,43,20.90
2010,08,10,06,44,21.00
2010,08,10,06,45,21.00
2010,08,10,06,46,21.00
2010,08,10,06,47,21.00
2010,08,10,06,48,22.50
2010,08,10,06,49,23.00
2010,08,10,06,50,23.40
2010,08,10,06,51,25.00
2010,08,10,06,52,25.00
2010,08,10,06,53,25.00
2010,08,10,06,54,25.00
2010,08,10,06,55,25.00
2010,08,10,06,56,25.00
2010,08,10,06,57,25.40
2010,08,10,06,58,26.00
2010,08,10,06,59,26.00
2010,08,10,07,00,27.60
2010,08,10,07,01,28.20
2010,08,10,07,02,30.50
2010,08,10,07,03,32.00
2010,08,10,07,04,32.50
2010,08,10,07,05,33.00
2010,08,10,07,06,34.70
2010,08,10,07,07,35.00
2010,08,10,07,08,34.40
2010,08,10,07,09,33.00
2010,08,10,07,10,33.00
2010,08,10,07,11,32.30
2010,08,10,07,12,32.90
2010,08,10,07,13,33.30
2010,08,10,07,14,35.00
2010,08,10,07,15,35.80
2010,08,10,07,16,37.00
2010,08,10,07,17,37.00
2010,08,10,07,18,37.00
2010,08,10,07,19,37.30
2010,08,10,07,20,39.00
2010,08,10,07,21,39.50
2010,08,10,07,22,40.00
2010,08,10,07,23,40.00
2010,08,10,07,24,40.10
2010,08,10,07,25,41.70
2010,08,10,07,26,40.60
2010,08,10,07,27,42.00
2010,08,10,07,28,42.00
2010,08,10,07,29,43.60
2010,08,10,07,30,45.90
2010,08,10,07,31,46.00
2010,08,10,07,32,46.00
2010,08,10,07,33,44.90
2010,08,10,07,34,44.00
2010,08,10,07,35,44.00
2010,08,10,07,36,45.90
2010,08,10,07,37,46.20
2010,08,10,07,38,47.70
2010,08,10,07,39,49.00
2010,08,10,07,40,49.00
2010,08,10,07,41,49.00
2010,08,10,07,42,49.00
2010,08,10,07,43,49.00
2010,08,10,07,44,49.80
2010,08,10,07,45,51.00
2010,08,10,07,46,51.00
2010,08,10,07,47,52.70
2010,08,10,07,48,53.00
2010,08,10,07,49,53.00
2010,08,10,07,50,53.00
2010,08,10,07,51,53.00
2010,08,10,07,52,53.00
2010,08,10,07,53,53.00
2010,08,10,07,54,54.00
2010,08,10,07,55,54.00
2010,08,10,07,56,54.00
2010,08,10,07,57,55.20
2010,08,10,07,58,57.50
2010,08,10,07,59,59.80
2010,08,10,08,00,62.00
2010,08,10,08,01,62.00
2010,08,10,08,02,62.00
2010,08,10,08,03,62.00
2010,08,10,08,04,62.00
2010,08,10,08,05,62.90
2010,08,10,08,06,63.60
2010,08,10,08,07,67.60
2010,08,10,08,08,69.50
2010,08,10,08,09,70.00
2010,08,10,08,10,69.20
2010,08,10,08,11,69.00
2010,08,10,08,12,69.00
2010,08,10,08,13,69.00
2010,08,10,08,14,69.00
2010,08,10,08,15,69.60
2010,08,10,08,16,70.00
2010,08,10,08,17,71.90
2010,08,10,08,18,72.00
2010,08,10,08,19,72.00
2010,08,10,08,20,72.00
2010,08,10,08,21,72.00
2010,08,10,08,22,73.70
2010,08,10,08,23,74.30
2010,08,10,08,24,77.50
2010,08,10,08,25,79.70
2010,08,10,08,26,82.60
2010,08,10,08,27,85.40
2010,08,10,08,28,87.70
2010,08,10,08,29,90.00
2010,08,10,08,30,90.20
2010,08,10,08,31,91.00
2010,08,10,08,32,92.20
2010,08,10,08,33,93.00
2010,08,10,08,34,93.00
2010,08,10,08,35,93.00
2010,08,10,08,36,93.00
2010,08,10,08,37,93.80
2010,08,10,08,38,95.00
2010,08,10,08,39,95.00
2010,08,10,08,40,95.00
2010,08,10,08,41,95.00
2010,08,10,08,42,95.00
2010,08,10,08,43,95.90
2010,08,10,08,44,97.60
2010,08,10,08,45,99.60
2010,08,10,08,46,101.80
2010,08,10,08,47,104.20
2010,08,10,08,48,105.00
2010,08,10,08,49,105.00
2010,08,10,08,50,107.50
2010,08,10,08,51,109.00
2010,08,10,08,52,109.10
2010,08,10,08,53,111.00
2010,08,10,08,54,111.00
2010,08,10,08,55,112.10
2010,08,10,08,56,113.00
2010,08,10,08,57,113.00
2010,08,10,08,58,113.00
2010,08,10,08,59,113.00
2010,08,10,09,00,113.40
2010,08,10,09,01,114.00
2010,08,10,09,02,115.40
2010,08,10,09,03,117.70
2010,08,10,09,04,118.10
2010,08,10,09,05,120.00
2010,08,10,09,06,120.00
2010,08,10,09,07,120.50
2010,08,10,09,08,122.40
2010,08,10,09,09,124.60
2010,08,10,09,10,127.80
2010,08,10,09,11,129.60
2010,08,10,09,12,134.40
2010,08,10,09,13,135.00
2010,08,10,09,14,135.00
2010,08,10,09,15,135.00
2010,08,10,09,16,132.00
2010,08,10,09,17,132.00
2010,08,10,09,18,132.80
2010,08,10,09,19,134.60
2010,08,10,09,20,136.50
2010,08,10,09,21,138.80
2010,08,10,09,22,139.30
2010,08,10,09,23,141.00
2010,08,10,09,24,141.50
2010,08,10,09,25,143.30
2010,08,10,09,26,147.20
2010,08,10,09,27,150.70
2010,08,10,09,28,155.60
2010,08,10,09,29,159.50
2010,08,10,09,30,162.50
2010,08,10,09,31,164.30
2010,08,10,09,32,166.60
2010,08,10,09,33,169.00
2010,08,10,09,34,171.20
2010,08,10,09,35,173.50
2010,08,10,09,36,177.10
2010,08,10,09,37,178.60
2010,08,10,09,38,179.00
2010,08,10,09,39,182.80
2010,08,10,09,40,183.00
2010,08,10,09,41,183.00
2010,08,10,09,42,184.10
2010,08,10,09,43,185.70
2010,08,10,09,44,189.20
2010,08,10,09,45,195.40
2010,08,10,09,46,203.30
2010,08,10,09,47,209.50
2010,08,10,09,48,214.60
2010,08,10,09,49,217.30
2010,08,10,09,50,218.00
2010,08,10,09,51,220.10
2010,08,10,09,52,221.50
2010,08,10,09,53,224.60
2010,08,10,09,54,228.70
2010,08,10,09,55,232.90
2010,08,10,09,56,236.70
2010,08,10,09,57,243.50
2010,08,10,09,58,246.00
2010,08,10,09,59,247.70
2010,08,10,10,00,248.80
2010,08,10,10,01,245.20
2010,08,10,10,02,239.20
2010,08,10,10,03,230.90
2010,08,10,10,04,223.50
2010,08,10,10,05,220.50
2010,08,10,10,06,224.90
2010,08,10,10,07,234.40
2010,08,10,10,08,238.50
2010,08,10,10,09,266.70
2010,08,10,10,10,276.90
2010,08,10,10,11,279.00
2010,08,10,10,12,278.40
2010,08,10,10,13,278.00
2010,08,10,10,14,282.90
2010,08,10,10,15,287.20
2010,08,10,10,16,288.00
2010,08,10,10,17,300.10
2010,08,10,10,18,311.00
2010,08,10,10,19,359.80
2010,08,10,10,20,345.60
2010,08,10,10,21,308.00
2010,08,10,10,22,310.90
2010,08,10,10,23,308.60
2010,08,10,10,24,302.00
2010,08,10,10,25,295.30
2010,08,10,10,26,293.90
2010,08,10,10,27,292.00
2010,08,10,10,28,293.10
2010,08,10,10,29,298.20
2010,08,10,10,30,307.80
2010,08,10,10,31,320.30
2010,08,10,10,32,334.40
2010,08,10,10,33,355.50
2010,08,10,10,34,354.10
2010,08,10,10,35,341.90
2010,08,10,10,36,326.40
2010,08,10,10,37,318.80
2010,08,10,10,38,321.10
2010,08,10,10,39,329.90
2010,08,10,10,40,343.60
2010,08,10,10,41,352.00
2010,08,10,10,42,374.80
2010,08,10,10,43,430.40
2010,08,10,10,44,507.70
2010,08,10,10,45,537.60
2010,08,10,10,46,606.00
2010,08,10,10,47,747.80
2010,08,10,10,48,836.30
2010,08,10,10,49,780.40
2010,08,10,10,50,747.00
2010,08,10,10,51,747.00
2010,08,10,10,52,587.20
2010,08,10,10,53,387.60
2010,08,10,10,54,386.60
2010,08,10,10,55,375.10
2010,08,10,10,56,373.50
2010,08,10,10,57,390.40
2010,08,10,10,58,406.10
2010,08,10,10,59,408.00
2010,08,10,11,00,402.50
2010,08,10,11,01,377.40
2010,08,10,11,02,360.00
2010,08,10,11,03,346.00
2010,08,10,11,04,318.30
2010,08,10,11,05,321.80
2010,08,10,11,06,329.20
2010,08,10,11,07,351.80
2010,08,10,11,08,373.10
2010,08,10,11,09,397.70
2010,08,10,11,10,419.40
2010,08,10,11,11,442.70
2010,08,10,11,12,457.60
2010,08,10,11,13,460.30
2010,08,10,11,14,471.00
2010,08,10,11,15,488.30
2010,08,10,11,16,508.50
2010,08,10,11,17,506.00
2010,08,10,11,18,465.70
2010,08,10,11,19,447.70
2010,08,10,11,20,443.90
2010,08,10,11,21,503.50
2010,08,10,11,22,577.10
2010,08,10,11,23,670.20
2010,08,10,11,24,734.30
2010,08,10,11,25,803.00
2010,08,10,11,26,791.30
2010,08,10,11,27,758.90
2010,08,10,11,28,742.60
2010,08,10,11,29,731.10
2010,08,10,11,30,721.60
2010,08,10,11,31,717.00
2010,08,10,11,32,717.00
2010,08,10,11,33,717.00
2010,08,10,11,34,717.00
2010,08,10,11,35,718.60
2010,08,10,11,36,719.10
2010,08,10,11,37,721.20
2010,08,10,11,38,722.70
2010,08,10,11,39,724.00
2010,08,10,11,40,724.00
2010,08,10,11,41,724.00
2010,08,10,11,42,725.80
2010,08,10,11,43,724.40
2010,08,10,11,44,726.00
2010,08,10,11,45,727.00
2010,08,10,11,46,728.70
2010,08,10,11,47,729.00
2010,08,10,11,48,730.70
2010,08,10,11,49,729.50
2010,08,10,11,50,731.80
2010,08,10,11,51,731.90
2010,08,10,11,52,733.80
2010,08,10,11,53,736.70
2010,08,10,11,54,737.00
2010,08,10,11,55,737.30
2010,08,10,11,56,738.00
2010,08,10,11,57,739.20
2010,08,10,11,58,741.50
2010,08,10,11,59,742.00
2010,08,10,12,00,742.00
2010,08,10,12,01,742.80
2010,08,10,12,02,744.60
2010,08,10,12,03,744.60
2010,08,10,12,04,745.00
2010,08,10,12,05,745.00
2010,08,10,12,06,747.00
2010,08,10,12,07,747.00
2010,08,10,12,08,747.00
2010,08,10,12,09,748.20
2010,08,10,12,10,750.50
2010,08,10,12,11,751.90
2010,08,10,12,12,752.00
2010,08,10,12,13,752.00
2010,08,10,12,14,752.90
2010,08,10,12,15,754.00
2010,08,10,12,16,755.50
2010,08,10,12,17,757.90
2010,08,10,12,18,758.20
2010,08,10,12,19,758.70
2010,08,10,12,20,758.50
2010,08,10,12,21,759.00
2010,08,10,12,22,759.00
2010,08,10,12,23,761.00
2010,08,10,12,24,762.60
2010,08,10,12,25,761.70
2010,08,10,12,26,763.00
2010,08,10,12,27,763.00
2010,08,10,12,28,764.60
2010,08,10,12,29,765.00
2010,08,10,12,30,765.20
2010,08,10,12,31,766.00
2010,08,10,12,32,767.10
2010,08,10,12,33,768.00
2010,08,10,12,34,768.00
2010,08,10,12,35,768.30
2010,08,10,12,36,770.60
2010,08,10,12,37,770.30
2010,08,10,12,38,768.00
2010,08,10,12,39,771.40
2010,08,10,12,40,773.00
2010,08,10,12,41,773.00
2010,08,10,12,42,773.50
2010,08,10,12,43,775.00
2010,08,10,12,44,775.00
2010,08,10,12,45,775.00
2010,08,10,12,46,776.80
2010,08,10,12,47,775.30
2010,08,10,12,48,777.00
2010,08,10,12,49,777.90
2010,08,10,12,50,777.70
2010,08,10,12,51,777.00
2010,08,10,12,52,777.00
2010,08,10,12,53,776.60
2010,08,10,12,54,776.30
2010,08,10,12,55,779.50
2010,08,10,12,56,780.00
2010,08,10,12,57,779.20
2010,08,10,12,58,779.90
2010,08,10,12,59,780.00
2010,08,10,13,00,780.00
2010,08,10,13,01,781.00
2010,08,10,13,02,782.00
2010,08,10,13,03,783.60
2010,08,10,13,04,782.10
2010,08,10,13,05,782.00
2010,08,10,13,06,781.20
2010,08,10,13,07,783.20
2010,08,10,13,08,780.20
2010,08,10,13,09,779.50
2010,08,10,13,10,782.00
2010,08,10,13,11,782.50
2010,08,10,13,12,784.00
2010,08,10,13,13,786.30
2010,08,10,13,14,788.00
2010,08,10,13,15,765.30
2010,08,10,13,16,795.00
2010,08,10,13,17,794.50
2010,08,10,13,18,791.30
2010,08,10,13,19,791.20
2010,08,10,13,20,783.40
2010,08,10,13,21,787.20
2010,08,10,13,22,777.30
2010,08,10,13,23,763.60
2010,08,10,13,24,790.20
2010,08,10,13,25,750.50
2010,08,10,13,26,735.90
2010,08,10,13,27,783.20
2010,08,10,13,28,790.50
2010,08,10,13,29,788.30
2010,08,10,13,30,787.60
2010,08,10,13,31,786.00
2010,08,10,13,32,784.50
2010,08,10,13,33,787.60
2010,08,10,13,34,786.30
2010,08,10,13,35,788.00
2010,08,10,13,36,788.00
2010,08,10,13,37,788.60
2010,08,10,13,38,786.80
2010,08,10,13,39,787.90
2010,08,10,13,40,788.80
2010,08,10,13,41,788.30
2010,08,10,13,42,786.40
2010,08,10,13,43,781.50
2010,08,10,13,44,779.20
2010,08,10,13,45,776.30
2010,08,10,13,46,783.20
2010,08,10,13,47,780.00
2010,08,10,13,48,780.00
2010,08,10,13,49,777.90
2010,08,10,13,50,779.50
2010,08,10,13,51,777.30
2010,08,10,13,52,780.00
2010,08,10,13,53,779.60
2010,08,10,13,54,779.00
2010,08,10,13,55,779.00
2010,08,10,13,56,777.30
2010,08,10,13,57,776.60
2010,08,10,13,58,773.00
2010,08,10,13,59,773.00
2010,08,10,14,00,773.00
2010,08,10,14,01,772.30
2010,08,10,14,02,772.80
2010,08,10,14,03,770.30
2010,08,10,14,04,772.00
2010,08,10,14,05,772.50
2010,08,10,14,06,770.10
2010,08,10,14,07,766.50
2010,08,10,14,08,769.60
2010,08,10,14,09,769.70
2010,08,10,14,10,767.40
2010,08,10,14,11,766.00
2010,08,10,14,12,766.00
2010,08,10,14,13,766.00
2010,08,10,14,14,766.00
2010,08,10,14,15,765.80
2010,08,10,14,16,765.30
2010,08,10,14,17,765.50
2010,08,10,14,18,763.80
2010,08,10,14,19,761.40
2010,08,10,14,20,762.80
2010,08,10,14,21,762.60
2010,08,10,14,22,761.00
2010,08,10,14,23,759.90
2010,08,10,14,24,758.40
2010,08,10,14,25,758.00
2010,08,10,14,26,757.80
2010,08,10,14,27,756.40
2010,08,10,14,28,757.30
2010,08,10,14,29,757.00
2010,08,10,14,30,755.40
2010,08,10,14,31,755.70
2010,08,10,14,32,754.10
2010,08,10,14,33,754.50
2010,08,10,14,34,754.30
2010,08,10,14,35,752.00
2010,08,10,14,36,751.30
2010,08,10,14,37,734.20
2010,08,10,14,38,733.40
2010,08,10,14,39,747.50
2010,08,10,14,40,747.50
2010,08,10,14,41,745.00
2010,08,10,14,42,745.00
2010,08,10,14,43,744.10
2010,08,10,14,44,745.30
2010,08,10,14,45,748.40
2010,08,10,14,46,739.20
2010,08,10,14,47,738.00
2010,08,10,14,48,738.00
2010,08,10,14,49,736.90
2010,08,10,14,50,733.00
2010,08,10,14,51,732.40
2010,08,10,14,52,731.00
2010,08,10,14,53,731.00
2010,08,10,14,54,729.50
2010,08,10,14,55,728.10
2010,08,10,14,56,727.70
2010,08,10,14,57,725.30
2010,08,10,14,58,724.00
2010,08,10,14,59,722.80
2010,08,10,15,00,722.00
2010,08,10,15,01,722.00
2010,08,10,15,02,720.90
2010,08,10,15,03,717.00
2010,08,10,15,04,716.00
2010,08,10,15,05,714.40
2010,08,10,15,06,712.40
2010,08,10,15,07,710.10
2010,08,10,15,08,710.00
2010,08,10,15,09,709.30
2010,08,10,15,10,708.00
2010,08,10,15,11,707.30
2010,08,10,15,12,705.40
2010,08,10,15,13,704.80
2010,08,10,15,14,703.00
2010,08,10,15,15,702.20
2010,08,10,15,16,701.00
2010,08,10,15,17,700.30
2010,08,10,15,18,698.30
2010,08,10,15,19,696.10
2010,08,10,15,20,695.50
2010,08,10,15,21,694.00
2010,08,10,15,22,693.50
2010,08,10,15,23,691.60
2010,08,10,15,24,689.30
2010,08,10,15,25,688.50
2010,08,10,15,26,686.00
2010,08,10,15,27,685.20
2010,08,10,15,28,682.80
2010,08,10,15,29,682.00
2010,08,10,15,30,682.00
2010,08,10,15,31,679.50
2010,08,10,15,32,677.00
2010,08,10,15,33,677.00
2010,08,10,15,34,675.80
2010,08,10,15,35,673.60
2010,08,10,15,36,671.20
2010,08,10,15,37,670.80
2010,08,10,15,38,669.40
2010,08,10,15,39,668.00
2010,08,10,15,40,666.70
2010,08,10,15,41,664.40
2010,08,10,15,42,663.00
2010,08,10,15,43,660.60
2010,08,10,15,44,658.40
2010,08,10,15,45,657.00
2010,08,10,15,46,656.30
2010,08,10,15,47,654.40
2010,08,10,15,48,653.80
2010,08,10,15,49,649.80
2010,08,10,15,50,649.00
2010,08,10,15,51,647.90
2010,08,10,15,52,645.70
2010,08,10,15,53,643.30
2010,08,10,15,54,642.00
2010,08,10,15,55,641.50
2010,08,10,15,56,639.20
2010,08,10,15,57,636.90
2010,08,10,15,58,635.30
2010,08,10,15,59,633.30
2010,08,10,16,00,632.60
2010,08,10,16,01,629.00
2010,08,10,16,02,627.70
2010,08,10,16,03,624.80
2010,08,10,16,04,624.00
2010,08,10,16,05,622.30
2010,08,10,16,06,620.80
2010,08,10,16,07,619.00
2010,08,10,16,08,617.30
2010,08,10,16,09,613.80
2010,08,10,16,10,612.20
2010,08,10,16,11,612.00
2010,08,10,16,12,608.00
2010,08,10,16,13,607.40
2010,08,10,16,14,605.50
2010,08,10,16,15,602.70
2010,08,10,16,16,601.00
2010,08,10,16,17,599.10
2010,08,10,16,18,598.40
2010,08,10,16,19,594.70
2010,08,10,16,20,592.00
2010,08,10,16,21,592.00
2010,08,10,16,22,589.60
2010,08,10,16,23,587.00
2010,08,10,16,24,585.00
2010,08,10,16,25,584.60
2010,08,10,16,26,581.90
2010,08,10,16,27,578.70
2010,08,10,16,28,578.00
2010,08,10,16,29,577.90
2010,08,10,16,30,577.00
2010,08,10,16,31,574.80
2010,08,10,16,32,570.50
2010,08,10,16,33,568.70
2010,08,10,16,34,566.40
2010,08,10,16,35,563.80
2010,08,10,16,36,561.00
2010,08,10,16,37,560.30
2010,08,10,16,38,557.90
2010,08,10,16,39,555.70
2010,08,10,16,40,554.20
2010,08,10,16,41,551.80
2010,08,10,16,42,549.50
2010,08,10,16,43,548.00
2010,08,10,16,44,546.30
2010,08,10,16,45,545.00
2010,08,10,16,46,541.40
2010,08,10,16,47,537.70
2010,08,10,16,48,535.50
2010,08,10,16,49,533.60
2010,08,10,16,50,533.00
2010,08,10,16,51,530.10
2010,08,10,16,52,527.20
2010,08,10,16,53,525.70
2010,08,10,16,54,522.80
2010,08,10,16,55,520.00
2010,08,10,16,56,518.10
2010,08,10,16,57,517.00
2010,08,10,16,58,513.40
2010,08,10,16,59,511.70
2010,08,10,17,00,509.30
2010,08,10,17,01,507.10
2010,08,10,17,02,504.20
2010,08,10,17,03,501.40
2010,08,10,17,04,499.00
2010,08,10,17,05,496.80
2010,08,10,17,06,494.60
2010,08,10,17,07,490.90
2010,08,10,17,08,489.40
2010,08,10,17,09,485.80
2010,08,10,17,10,483.10
2010,08,10,17,11,482.40
2010,08,10,17,12,479.30
2010,08,10,17,13,476.90
2010,08,10,17,14,475.30